Location: Maiden_LMO
(35.5760°N, 81.2120°W)
Time: 02:49:48
(UTC-04:00)

ADEOS II - Visible Passes

Search period start: 26 May 2016 00:00
Search period end: 05 June 2016 00:00
Orbit: 799 x 802 km, 98.3° (Epoch: 24 May)

Date Brightness Start Highest point End Pass type
(mag) Time Alt. Az. Time Alt. Az. Time Alt. Az.
26 May 4.2 05:05:11 10° NE 05:09:29 25° E 05:13:47 10° SSE visible
27 May 4.8 04:40:21 10° ENE 04:42:56 14° E 04:45:31 10° ESE visible
29 May 3.4 05:25:24 10° NNE 05:30:21 41° E 05:35:17 10° SSE visible
30 May 4.3 04:59:48 10° NE 05:03:53 23° E 05:07:57 10° SE visible
31 May 4.8 04:35:21 10° ENE 04:37:19 12° E 04:39:17 10° ESE visible
02 Jun 3.6 05:19:56 10° NNE 05:24:46 36° E 05:29:35 10° SSE visible
03 Jun 4.5 04:54:27 10° NE 04:58:17 20° E 05:02:05 10° SE visible
04 Jun 5.0 04:30:47 10° E 04:31:41 10° E 04:32:36 10° E visible
